Date,TemperatureHighF,TemperatureAvgF,TemperatureLowF,DewpointHighF,DewpointAvgF,DewpointLowF,HumidityHigh,HumidityAvg,HumidityLow,PressureMaxIn,PressureMinIn,WindSpeedMaxMPH,WindSpeedAvgMPH,GustSpeedMaxMPH,PrecipitationSumIn
2013-1-1,77.2,72.6,66.8,-99.9,-99.9,-99.9,38,38,38,30.16,30.01,21,4,21,0.00
2013-1-2,80.5,71.4,61.6,-99.9,-99.9,-99.9,38,38,38,30.05,29.94,14,1,14,0.00
2013-1-3,79.4,72.4,65.2,-99.9,-99.9,-99.9,38,38,38,30.08,29.99,16,2,16,0.00
2013-1-4,77.4,70.8,65.2,-99.9,-99.9,-99.9,38,38,38,30.19,30.06,14,2,14,0.00
2013-1-5,76.3,70.8,66.6,-99.9,-99.9,-99.9,38,38,38,30.21,30.12,16,2,16,0.02
2013-1-6,80.5,73.2,66.1,-99.9,-99.9,-99.9,38,38,38,30.15,30.02,20,3,20,0.01
2013-1-7,75.6,72.3,67.8,-99.9,-99.9,-99.9,38,38,38,30.12,30.03,20,4,20,0.00
2013-1-8,80.9,74.6,69.9,-99.9,-99.9,-99.9,38,38,38,30.17,30.05,17,3,17,0.64
2013-1-9,80.1,76.6,73.3,-99.9,-99.9,-99.9,38,38,38,30.24,30.12,19,4,19,0.14
2013-1-10,77.7,75.8,74.6,-99.9,-99.9,-99.9,38,38,38,30.25,30.15,19,7,19,0.00
2013-1-11,77.2,75.0,73.5,-99.9,-99.9,-99.9,38,38,38,30.22,30.12,18,6,18,0.04
2013-1-12,78.6,75.5,73.5,-99.9,-99.9,-99.9,38,38,38,30.15,30.06,14,2,14,0.00
2013-1-13,78.8,75.0,72.8,-99.9,-99.9,-99.9,38,38,38,30.09,30.03,16,4,16,0.00
2013-1-14,80.1,75.3,72.3,-99.9,-99.9,-99.9,38,38,38,30.13,30.08,18,3,18,0.00
2013-1-15,77.2,74.5,72.5,-99.9,-99.9,-99.9,38,38,38,30.10,30.01,14,3,14,0.00
2013-1-16,81.4,74.5,65.8,-99.9,-99.9,-99.9,38,38,38,30.07,29.97,16,4,16,0.00
2013-1-17,80.3,71.8,59.8,-99.9,-99.9,-99.9,38,38,38,30.05,29.91,25,5,25,0.03
2013-1-18,72.3,62.3,50.8,-99.9,-99.9,-99.9,38,38,38,30.19,30.03,17,6,18,0.00
2013-1-19,74.9,70.6,66.3,-99.9,-99.9,-99.9,38,38,38,30.16,30.06,15,2,15,0.08
2013-1-20,76.5,70.4,64.0,-99.9,-99.9,-99.9,38,38,38,30.09,29.98,16,2,16,0.01
2013-1-21,77.9,71.9,65.3,-99.9,-99.9,-99.9,38,38,38,30.03,29.92,12,1,12,1.42
2013-1-22,74.2,67.6,61.3,-99.9,-99.9,-99.9,38,38,38,30.18,29.95,19,6,25,0.00
2013-1-23,74.0,68.2,61.3,-99.9,-99.9,-99.9,38,38,38,30.25,30.16,20,3,20,0.00
2013-1-24,72.8,66.9,58.6,-99.9,-99.9,-99.9,38,38,38,30.26,30.17,14,2,14,0.00
2013-1-25,75.3,65.7,56.6,-99.9,-99.9,-99.9,38,38,38,30.25,30.14,13,2,13,0.00
2013-1-26,75.4,66.7,57.8,-99.9,-99.9,-99.9,38,38,38,30.22,30.12,13,1,13,0.00
2013-1-27,76.7,69.3,60.2,-99.9,-99.9,-99.9,38,38,38,30.25,30.16,15,2,15,0.00
2013-1-28,79.0,74.2,71.6,-99.9,-99.9,-99.9,38,38,38,30.28,30.19,18,4,18,0.00
2013-1-29,78.5,74.0,72.1,-99.9,-99.9,-99.9,38,38,38,30.20,30.08,20,5,20,0.14
2013-1-30,78.3,74.4,72.0,-99.9,-99.9,-99.9,38,38,38,30.08,29.92,28,8,28,0.00
2013-1-31,72.7,65.1,55.3,-99.9,-99.9,-99.9,38,38,38,30.14,29.90,20,3,20,0.06
2013-2-1,70.6,61.2,49.9,-99.9,-99.9,-99.9,38,38,38,30.23,30.12,24,6,24,0.00
2013-2-2,73.0,63.1,53.9,-99.9,-99.9,-99.9,38,38,38,30.22,30.08,12,2,12,0.00
2013-2-3,71.6,62.8,55.9,-99.9,-99.9,-99.9,38,38,38,30.13,30.03,18,2,18,0.00
2013-2-4,74.7,61.6,48.5,-99.9,-99.9,-99.9,38,38,38,30.10,29.98,15,2,15,0.00
2013-2-5,76.8,67.5,56.5,-99.9,-99.9,-99.9,38,38,38,30.05,29.96,12,1,12,0.00
2013-2-6,76.8,70.5,62.1,-99.9,-99.9,-99.9,38,38,38,30.07,29.97,15,2,15,0.00
2013-2-7,80.1,74.3,71.1,-99.9,-99.9,-99.9,38,38,38,30.03,29.89,17,3,17,0.00
2013-2-8,81.6,73.1,69.1,-99.9,-99.9,-99.9,38,38,38,29.99,29.86,16,3,16,0.00
2013-2-9,77.6,71.8,63.9,-99.9,-99.9,-99.9,38,38,38,30.13,29.98,18,3,18,0.00
2013-2-10,73.9,71.7,70.3,-99.9,-99.9,-99.9,38,38,38,30.23,30.11,19,6,19,0.00
2013-2-11,78.8,73.8,70.3,-99.9,-99.9,-99.9,38,38,38,30.18,30.07,21,7,21,0.00
2013-2-12,80.3,74.1,67.3,-99.9,-99.9,-99.9,38,38,38,30.08,29.92,24,5,24,0.00
2013-2-13,80.9,75.3,69.1,-99.9,-99.9,-99.9,38,38,38,29.96,29.83,28,5,28,0.00
2013-2-14,73.0,68.3,62.6,-99.9,-99.9,-99.9,38,38,38,29.97,29.84,25,3,25,1.67
2013-2-15,70.6,66.3,62.9,-99.9,-99.9,-99.9,38,38,38,29.99,29.89,16,2,17,0.34
2013-2-16,72.1,63.6,52.3,-99.9,-99.9,-99.9,38,38,38,30.04,29.83,27,6,27,0.00
2013-2-17,55.9,50.1,44.1,-99.9,-99.9,-99.9,38,38,38,30.26,30.03,27,6,27,0.00
2013-2-18,67.1,58.5,45.5,-99.9,-99.9,-99.9,38,38,38,30.29,30.17,16,6,17,0.00
2013-2-19,76.7,70.3,61.5,-99.9,-99.9,-99.9,38,38,38,30.17,30.04,23,6,23,0.19
2013-2-20,77.4,69.8,62.3,-99.9,-99.9,-99.9,38,38,38,30.08,29.97,14,1,14,0.01
2013-2-21,79.4,74.0,68.4,-99.9,-99.9,-99.9,38,38,38,30.06,29.96,15,1,15,0.00
2013-2-22,80.9,76.0,72.7,-99.9,-99.9,-99.9,38,38,38,30.06,29.97,26,8,26,0.00
2013-2-23,81.4,76.1,73.0,-99.9,-99.9,-99.9,38,38,38,30.00,29.86,26,9,26,0.19
2013-2-24,86.1,76.4,71.3,-99.9,-99.9,-99.9,38,38,38,29.95,29.85,19,3,19,0.02
2013-2-25,82.0,75.4,69.9,-99.9,-99.9,-99.9,38,38,38,29.87,29.77,27,5,27,0.61
2013-2-26,84.5,78.2,74.7,-99.9,-99.9,-99.9,38,38,38,29.83,29.74,26,8,26,0.01
2013-2-27,76.7,69.4,64.0,-99.9,-99.9,-99.9,38,38,38,29.92,29.82,19,2,19,0.13
2013-2-28,70.6,63.2,57.5,-99.9,-99.9,-99.9,38,38,38,29.96,29.85,18,3,18,0.00
2013-3-1,64.0,60.7,56.7,-99.9,-99.9,-99.9,38,38,38,29.94,29.85,14,2,14,0.00
2013-3-2,64.3,56.6,50.8,-99.9,-99.9,-99.9,38,38,38,29.99,29.91,25,6,25,0.00
2013-3-3,59.5,51.8,44.9,-99.9,-99.9,-99.9,38,38,38,30.10,29.92,24,6,24,0.00
2013-3-4,62.9,52.9,43.3,-99.9,-99.9,-99.9,38,38,38,30.17,30.07,19,3,19,0.00
2013-3-5,74.4,63.4,51.1,-99.9,-99.9,-99.9,38,38,38,30.14,30.03,20,3,20,0.00
2013-3-6,74.4,64.4,51.7,-99.9,-99.9,-99.9,38,38,38,30.05,29.91,26,7,26,0.00
2013-3-7,67.3,57.3,46.2,-99.9,-99.9,-99.9,38,38,38,30.14,30.03,18,4,18,0.00
2013-3-8,71.1,62.1,51.1,-99.9,-99.9,-99.9,38,38,38,30.17,30.07,16,2,16,0.00
2013-3-9,72.5,65.1,55.9,-99.9,-99.9,-99.9,38,38,38,30.16,30.06,16,3,16,0.00
2013-3-10,74.7,70.3,67.6,-99.9,-99.9,-99.9,38,38,38,30.12,30.04,18,4,18,0.00
2013-3-11,77.7,71.6,68.3,-99.9,-99.9,-99.9,38,38,38,30.08,29.92,20,7,21,0.00
2013-3-12,78.8,73.9,70.3,-99.9,-99.9,-99.9,38,38,38,29.96,29.86,30,8,30,0.00
2013-3-13,70.4,64.5,55.7,-99.9,-99.9,-99.9,38,38,38,30.08,29.94,22,6,22,0.00
2013-3-14,66.6,59.3,52.6,-99.9,-99.9,-99.9,38,38,38,30.17,30.05,22,6,22,0.00
2013-3-15,70.3,60.4,50.5,-99.9,-99.9,-99.9,38,38,38,30.21,30.12,15,3,15,0.00
2013-3-16,75.4,65.0,54.4,-99.9,-99.9,-99.9,38,38,38,30.16,30.05,17,3,17,0.00
2013-3-17,76.8,67.8,57.3,-99.9,-99.9,-99.9,38,38,38,30.11,29.99,21,4,21,0.00
2013-3-18,79.8,72.7,67.1,-99.9,-99.9,-99.9,38,38,38,30.03,29.91,26,7,26,0.28
2013-3-19,78.8,71.8,67.1,-99.9,-99.9,-99.9,38,38,38,29.97,29.80,31,1,31,0.00
2013-3-20,79.6,71.9,65.0,-99.9,-99.9,-99.9,38,38,38,29.93,29.76,21,3,21,0.02
2013-3-21,70.9,65.4,59.8,-99.9,-99.9,-99.9,38,38,38,29.91,29.78,18,4,18,0.00
2013-3-22,77.0,67.7,56.0,-99.9,-99.9,-99.9,38,38,38,29.97,29.86,19,3,19,0.00
2013-3-23,83.4,76.9,72.0,-99.9,-99.9,-99.9,38,38,38,29.94,29.74,27,6,27,0.00
2013-3-24,88.6,79.2,70.8,-99.9,-99.9,-99.9,38,38,38,29.84,29.62,33,8,33,0.73
2013-3-25,86.1,78.4,63.2,-99.9,-99.9,-99.9,38,38,38,29.94,29.69,18,3,18,0.00
2013-3-26,66.8,58.7,50.5,-99.9,-99.9,-99.9,38,38,38,30.16,29.94,23,7,23,0.00
2013-3-27,65.0,55.5,45.2,-99.9,-99.9,-99.9,38,38,38,30.22,30.12,17,4,17,0.00
2013-3-28,69.1,60.0,48.2,-99.9,-99.9,-99.9,38,38,38,30.23,30.14,17,3,17,0.00
2013-3-29,73.7,65.8,55.6,-99.9,-99.9,-99.9,38,38,38,30.25,30.17,14,2,14,0.00
2013-3-30,74.9,69.2,64.7,-99.9,-99.9,-99.9,38,38,38,30.23,30.13,12,1,12,0.00
2013-3-31,79.4,71.5,59.0,-99.9,-99.9,-99.9,38,38,38,30.15,30.00,21,6,21,0.00
2013-4-1,84.7,75.6,70.9,-99.9,-99.9,-99.9,38,38,38,30.01,29.92,23,5,23,0.00
2013-4-2,78.6,72.9,65.2,-99.9,-99.9,-99.9,38,38,38,30.03,29.94,13,2,13,0.00
2013-4-3,83.0,77.0,72.7,-99.9,-99.9,-99.9,38,38,38,30.03,29.95,18,4,18,0.00
2013-4-4,81.6,74.7,67.3,-99.9,-99.9,-99.9,38,38,38,30.00,29.85,28,7,28,0.98
2013-4-5,73.7,69.8,66.6,-99.9,-99.9,-99.9,38,38,38,29.94,29.77,23,5,23,0.10
2013-4-6,77.0,68.9,58.0,-99.9,-99.9,-99.9,38,38,38,30.05,29.87,20,5,20,0.00
2013-4-7,77.7,73.7,70.9,-99.9,-99.9,-99.9,38,38,38,30.10,29.99,14,3,14,0.00
2013-4-8,80.5,75.0,69.3,-99.9,-99.9,-99.9,38,38,38,30.09,30.00,14,1,14,0.00
2013-4-9,75.3,74.0,73.0,-99.9,-99.9,-99.9,38,38,38,30.08,30.01,16,3,16,0.00
2013-4-10,82.6,77.6,73.5,-99.9,-99.9,-99.9,38,38,38,30.05,30.01,14,3,14,0.00
2013-4-15,73.5,72.4,69.8,-99.9,-99.9,-99.9,38,38,38,30.02,29.91,38,2,38,0.96
2013-4-16,82.8,77.5,71.6,-99.9,-99.9,-99.9,38,38,38,30.08,29.99,17,2,17,0.01
2013-4-17,81.8,77.6,75.1,-99.9,-99.9,-99.9,38,38,38,30.08,29.99,13,2,13,0.00
2013-4-18,86.5,80.2,75.4,-99.9,-99.9,-99.9,38,38,38,30.02,29.94,20,4,20,0.00
2013-4-19,82.6,76.6,72.6,61.2,17.7,-99.9,57,53,47,30.01,29.92,23,3,23,0.00
2013-4-20,82.8,77.0,72.6,63.7,17.4,-99.9,63,54,46,30.04,29.93,16,0,16,0.00
2013-4-21,81.4,75.8,72.3,64.6,52.0,-99.9,65,57,47,30.06,29.95,13,0,13,0.00
2013-4-22,80.1,76.4,73.0,64.8,23.1,-99.9,65,59,47,30.00,29.91,17,1,17,0.00
2013-4-23,81.1,75.6,71.7,62.2,-7.9,-99.9,63,57,50,30.05,29.91,17,2,17,0.00
2013-4-24,81.4,75.4,72.2,61.1,28.5,-99.9,61,56,50,30.09,29.99,9,0,0,0.00
2013-4-25,75.3,74.3,73.0,57.9,-51.1,-99.9,58,56,53,30.17,30.06,9,1,0,0.00
2013-4-26,79.4,75.1,71.9,61.4,13.9,-99.9,61,55,47,30.19,30.08,13,0,13,0.00
2013-4-27,79.8,74.8,71.9,61.4,30.9,-99.9,60,56,50,30.17,30.05,14,1,14,0.00
2013-4-28,80.3,74.8,71.8,60.8,16.9,-99.9,60,56,48,30.08,29.96,14,0,14,0.00
2013-4-29,84.9,76.7,72.2,63.8,-22.5,-99.9,68,56,50,30.00,29.89,19,2,19,0.00
2013-4-30,77.4,75.1,72.5,63.8,26.4,-99.9,65,60,53,29.95,29.88,17,1,17,0.48
2013-5-1,82.2,74.9,69.6,62.5,25.3,-99.9,64,60,53,29.96,29.88,11,0,0,0.00
2013-5-2,77.0,74.3,70.6,66.7,4.9,-99.9,75,68,55,29.91,29.77,26,3,26,0.24
2013-5-3,86.7,75.8,69.9,-99.9,-99.9,-99.9,75,75,75,29.78,29.63,26,5,26,0.78
2013-5-4,85.7,76.1,68.1,-99.9,-99.9,-99.9,75,75,75,29.75,29.64,16,2,16,0.01
2013-5-5,80.7,73.7,67.4,-99.9,-99.9,-99.9,75,75,75,29.89,29.70,18,2,18,0.00
2013-5-6,80.3,71.8,60.4,-99.9,-99.9,-99.9,75,75,75,29.96,29.87,15,2,15,0.00
2013-5-7,82.8,72.1,60.4,-99.9,-99.9,-99.9,75,75,75,30.01,29.92,19,4,19,0.00
2013-5-8,82.2,73.8,63.1,-99.9,-99.9,-99.9,75,75,75,30.08,29.99,12,1,12,0.00
2013-5-9,85.9,77.1,66.1,-99.9,-99.9,-99.9,75,75,75,30.09,30.02,13,1,13,0.01
2013-5-10,87.0,80.1,70.3,-99.9,-99.9,-99.9,75,75,75,30.09,29.98,23,3,23,1.06
2013-5-11,85.5,79.4,71.3,-99.9,-99.9,-99.9,75,75,75,30.03,29.92,25,5,25,1.53
2013-5-12,87.8,77.0,72.1,-99.9,-99.9,-99.9,75,75,75,30.02,29.89,18,2,18,0.28
2013-5-13,85.5,76.9,70.6,-99.9,-99.9,-99.9,75,75,75,30.05,29.94,18,2,18,0.01
2013-5-14,80.3,76.1,73.9,-99.9,-99.9,-99.9,75,75,75,30.14,30.03,17,4,17,0.00
2013-5-15,81.1,76.4,73.7,-99.9,-99.9,-99.9,75,75,75,30.16,30.06,14,2,15,0.00
2013-5-16,81.6,76.8,72.1,-99.9,-99.9,-99.9,75,75,75,30.08,30.00,13,2,13,0.00
2013-5-17,81.4,77.5,74.4,-99.9,-99.9,-99.9,75,75,75,30.05,29.97,15,2,15,0.35
2013-5-18,85.7,79.1,72.7,-99.9,-99.9,-99.9,75,75,75,30.07,30.00,16,2,16,0.80
2013-5-19,84.9,79.8,76.1,-99.9,-99.9,-99.9,75,75,75,30.06,29.97,13,2,13,0.00
2013-5-20,79.2,75.1,70.8,-99.9,-99.9,-99.9,75,75,75,30.06,29.94,19,2,19,3.41
2013-5-21,84.1,76.0,70.1,-99.9,-99.9,-99.9,75,75,75,30.01,29.90,23,2,23,2.57
2013-5-22,83.6,78.4,74.9,-99.9,-99.9,-99.9,75,75,75,29.93,29.86,22,3,22,0.10
2013-5-23,88.0,80.5,74.0,-99.9,-99.9,-99.9,75,75,75,29.95,29.85,15,2,15,0.00
2013-5-24,85.9,80.4,72.8,-99.9,-99.9,-99.9,75,75,75,30.01,29.90,14,1,14,0.12
2013-5-25,83.0,79.7,77.0,-99.9,-99.9,-99.9,75,75,75,30.12,30.00,18,5,18,0.00
2013-5-26,83.2,78.7,75.3,-99.9,-99.9,-99.9,75,75,75,30.14,30.07,14,3,14,0.00
2013-5-27,84.3,79.2,75.6,-99.9,-99.9,-99.9,75,75,75,30.12,30.03,19,5,19,0.00
2013-5-28,83.0,78.0,73.0,-99.9,-99.9,-99.9,75,75,75,30.08,30.01,21,6,21,0.96
2013-5-29,80.1,77.5,71.6,-99.9,-99.9,-99.9,75,75,75,30.06,29.98,25,7,25,0.87
2013-5-30,81.1,77.9,73.0,-99.9,-99.9,-99.9,75,75,75,30.06,29.97,29,9,29,1.54
2013-5-31,83.0,79.0,75.6,-99.9,-99.9,-99.9,75,75,75,30.03,29.97,23,8,23,0.21
2013-6-1,84.3,79.4,76.0,-99.9,-99.9,-99.9,75,75,75,29.99,29.92,17,3,17,0.14
2013-6-2,88.8,80.3,74.6,-99.9,-99.9,-99.9,75,75,75,29.96,29.88,17,2,17,0.03
2013-6-3,87.0,79.4,74.9,-99.9,-99.9,-99.9,75,75,75,29.99,29.87,15,1,15,0.22
2013-6-4,83.6,78.8,74.4,-99.9,-99.9,-99.9,75,75,75,30.01,29.91,10,0,0,0.15
2013-6-5,82.4,80.7,79.6,-99.9,-99.9,-99.9,75,75,75,29.97,29.86,13,1,13,0.03
2013-6-6,85.5,78.8,73.9,-99.9,-99.9,-99.9,75,75,75,29.87,29.71,33,7,33,2.49
2013-6-7,89.3,77.8,73.9,-99.9,-99.9,-99.9,75,75,75,29.94,29.79,27,3,27,1.02
2013-6-8,82.6,77.3,74.0,-99.9,-99.9,-99.9,75,75,75,30.08,29.92,16,1,16,1.02
2013-6-9,87.4,81.5,74.6,-99.9,-99.9,-99.9,75,75,75,30.08,30.00,14,2,14,0.14
2013-6-10,87.8,83.1,79.4,-99.9,-99.9,-99.9,75,75,75,30.05,29.97,17,1,17,0.00
2013-6-11,88.0,83.1,79.9,-99.9,-99.9,-99.9,75,75,75,30.05,29.97,20,3,20,0.00
2013-6-12,87.6,81.7,78.3,-99.9,-99.9,-99.9,75,75,75,30.03,29.98,15,0,15,0.00
2013-6-13,88.0,81.5,76.0,-99.9,-99.9,-99.9,75,75,75,30.00,29.89,14,1,14,0.00
2013-6-14,92.7,82.7,75.4,-99.9,-99.9,-99.9,75,75,75,29.92,29.83,15,2,25,0.00
2013-6-15,88.8,82.1,76.0,-99.9,-99.9,-99.9,75,75,75,30.01,29.87,12,1,12,0.00
2013-6-16,89.7,83.6,77.2,-99.9,-99.9,-99.9,75,75,75,30.05,29.98,14,1,14,0.59
2013-6-17,90.7,84.5,79.6,-99.9,-99.9,-99.9,75,75,75,30.03,29.97,17,3,17,0.01
2013-6-18,90.3,85.0,79.9,-99.9,-99.9,-99.9,75,68,38,30.03,29.94,18,4,18,0.00
2013-6-19,91.0,83.5,78.3,-99.9,-99.9,-99.9,38,38,38,30.00,29.94,19,4,19,0.18
2013-6-20,90.5,83.1,76.5,-99.9,-99.9,-99.9,38,38,38,30.05,29.98,18,2,18,0.02
2013-6-21,90.5,84.5,79.0,-99.9,-99.9,-99.9,38,38,38,30.07,29.99,15,2,15,0.01
2013-6-22,89.0,84.0,79.9,-99.9,-99.9,-99.9,38,38,38,30.06,30.00,13,1,13,0.00
2013-6-23,89.0,83.4,78.8,-99.9,-99.9,-99.9,38,38,38,30.09,30.01,14,3,24,0.33
2013-6-24,88.2,83.4,79.4,-99.9,-99.9,-99.9,38,38,38,30.13,30.05,13,2,13,0.02
2013-6-25,89.0,83.6,80.3,-99.9,-99.9,-99.9,38,38,38,30.09,30.00,18,3,18,0.00
2013-6-26,90.5,83.9,79.0,-99.9,-99.9,-99.9,38,38,38,30.04,29.97,19,3,19,0.23
2013-6-27,88.0,82.3,78.6,-99.9,-99.9,-99.9,38,38,38,30.02,29.92,11,1,12,0.04
2013-6-28,89.5,81.6,71.3,-99.9,-99.9,-99.9,38,38,38,29.95,29.82,33,3,33,0.59
2013-6-29,89.3,80.0,75.1,-99.9,-99.9,-99.9,38,38,38,29.88,29.76,21,2,21,0.12
2013-6-30,91.0,79.6,74.7,-99.9,-99.9,-99.9,38,38,38,29.91,29.80,28,3,28,0.51
2013-7-1,88.6,81.8,76.0,-99.9,-99.9,-99.9,38,38,38,30.00,29.87,30,6,30,0.08
2013-7-2,88.2,82.7,77.7,-99.9,-99.9,-99.9,38,38,38,30.07,29.93,19,6,19,0.00
2013-7-3,88.8,81.5,75.3,-99.9,-99.9,-99.9,38,38,38,30.09,30.01,23,4,26,0.66
2013-7-4,88.4,83.0,77.2,-99.9,-99.9,-99.9,38,38,38,30.11,30.03,21,3,21,0.08
2013-7-5,86.7,82.6,78.1,-99.9,-99.9,-99.9,38,38,38,30.10,30.02,21,4,22,0.25
2013-7-6,87.2,82.6,80.5,-99.9,-99.9,-99.9,38,38,38,30.08,30.00,18,4,18,0.23
2013-7-7,87.4,82.8,79.0,-99.9,-99.9,-99.9,38,38,38,30.06,29.99,16,3,16,0.09
2013-7-8,88.2,83.2,79.9,-99.9,-99.9,-99.9,38,38,38,30.11,30.03,12,1,12,0.00
2013-7-9,85.9,81.3,77.0,-99.9,-99.9,-99.9,38,38,38,30.11,30.00,18,1,18,0.56
2013-7-10,87.0,80.4,73.7,-99.9,-99.9,-99.9,38,38,38,30.05,29.95,20,3,20,0.01
2013-7-11,90.3,82.7,77.4,-99.9,-99.9,-99.9,38,38,38,30.00,29.90,15,2,16,0.00
2013-7-12,88.2,80.2,73.9,-99.9,-99.9,-99.9,38,38,38,29.92,29.85,17,1,22,1.02
2013-7-13,84.1,76.9,73.7,-99.9,-99.9,-99.9,38,38,38,29.98,29.88,17,1,17,0.27
2013-7-14,86.5,78.2,73.2,-99.9,-99.9,-99.9,38,38,38,30.06,29.94,18,2,18,0.11
2013-7-15,85.9,79.3,73.9,-99.9,-99.9,-99.9,38,38,38,30.06,29.98,16,1,17,0.23
2013-7-16,83.4,79.6,72.5,-99.9,-99.9,-99.9,38,38,38,30.12,30.02,28,4,28,1.23
2013-7-17,82.6,79.7,76.3,-99.9,-99.9,-99.9,38,38,38,30.09,30.01,27,3,27,0.30
2013-7-18,85.9,78.1,73.5,-99.9,-99.9,-99.9,38,38,38,30.08,30.01,22,1,22,0.74
2013-7-19,83.8,79.8,73.9,-99.9,-99.9,-99.9,38,38,38,30.08,30.01,17,3,17,0.01
2013-7-20,87.6,82.6,77.7,-99.9,-99.9,-99.9,38,38,38,30.08,29.99,27,4,27,0.14
2013-7-21,87.6,80.8,73.0,-99.9,-99.9,-99.9,38,38,38,30.11,30.01,20,2,20,0.15
2013-7-22,89.3,83.0,75.1,-99.9,-99.9,-99.9,38,38,38,30.11,30.03,20,5,20,0.00
2013-7-23,89.7,83.8,78.6,-99.9,-99.9,-99.9,38,38,38,30.06,29.92,20,4,20,0.00
2013-7-24,92.7,83.9,77.0,-99.9,-99.9,-99.9,38,38,38,29.97,29.86,15,2,17,0.00
2013-7-25,92.7,84.0,76.8,-99.9,-99.9,-99.9,38,38,38,29.96,29.86,17,3,19,0.02
2013-7-26,91.6,82.6,78.1,-99.9,-99.9,-99.9,38,38,38,29.97,29.89,14,3,14,0.09
2013-7-27,87.2,80.1,76.0,-99.9,-99.9,-99.9,38,38,38,29.95,29.89,9,1,13,0.05
2013-7-28,86.3,79.4,74.6,-99.9,-99.9,-99.9,38,38,38,30.02,29.90,17,1,17,2.45
2013-7-29,89.0,81.5,76.1,-99.9,-99.9,-99.9,38,38,38,30.09,29.99,13,1,17,0.00
2013-7-30,89.9,84.8,80.9,-99.9,-99.9,-99.9,38,38,38,30.12,30.04,15,1,15,0.05
2013-7-31,90.7,85.1,81.6,-99.9,-99.9,-99.9,38,38,38,30.08,29.97,15,2,15,0.00
2013-8-1,89.0,84.3,80.9,-99.9,-99.9,-99.9,38,38,38,30.01,29.91,12,2,14,0.00
2013-8-2,85.5,79.0,71.8,-99.9,-99.9,-99.9,38,38,38,30.00,29.87,29,1,29,1.52
2013-8-3,84.7,78.4,75.6,-99.9,-99.9,-99.9,38,38,38,30.08,29.98,25,1,25,0.05
2013-8-4,91.0,80.4,74.0,-99.9,-99.9,-99.9,38,38,38,30.06,29.94,29,1,29,1.35
2013-8-5,90.3,80.6,75.3,-99.9,-99.9,-99.9,38,38,38,29.99,29.89,18,1,18,0.37
2013-8-6,90.1,82.1,75.4,-99.9,-99.9,-99.9,38,38,38,29.94,29.86,9,0,0,0.00
2013-8-7,89.0,84.1,78.6,-99.9,-99.9,-99.9,38,38,38,29.94,29.86,25,3,25,0.03
2013-8-8,90.5,85.3,82.0,-99.9,-99.9,-99.9,38,38,38,29.98,29.89,16,3,16,0.00
2013-8-9,89.5,83.8,80.1,-99.9,-99.9,-99.9,38,38,38,30.03,29.91,26,3,26,0.02
2013-8-10,91.2,84.8,81.1,-99.9,-99.9,-99.9,38,38,38,30.08,30.00,15,1,15,0.10
2013-8-11,90.7,85.0,81.2,-99.9,-99.9,-99.9,38,38,38,30.09,30.03,11,2,12,0.00
2013-8-12,88.8,84.3,81.1,-99.9,-99.9,-99.9,38,38,38,30.07,29.98,10,1,0,0.00
2013-8-13,91.6,85.7,80.9,-99.9,-99.9,-99.9,38,38,38,30.01,29.91,18,3,18,0.00
2013-8-14,91.6,84.8,77.6,-99.9,-99.9,-99.9,38,38,38,29.99,29.89,21,4,21,0.00
2013-8-15,89.0,83.1,78.8,-99.9,-99.9,-99.9,38,38,38,30.02,29.92,20,5,20,0.00
2013-8-16,90.3,83.4,74.9,-99.9,-99.9,-99.9,38,38,38,30.03,29.94,17,1,17,1.03
2013-8-17,90.7,85.6,82.0,-99.9,-99.9,-99.9,38,38,38,30.04,29.96,13,1,13,0.00
2013-8-18,88.6,83.8,80.3,-99.9,-99.9,-99.9,38,38,38,30.05,29.96,22,3,22,0.12
2013-8-19,91.0,84.9,78.8,-99.9,-99.9,-99.9,38,38,38,30.04,29.93,20,2,20,0.03
2013-8-20,89.9,84.2,79.0,-99.9,-99.9,-99.9,38,38,38,30.03,29.94,14,2,14,0.19
2013-8-21,87.8,83.7,78.3,-99.9,-99.9,-99.9,38,38,38,30.04,29.97,23,4,23,0.14
2013-8-22,88.8,84.7,79.0,-99.9,-99.9,-99.9,38,38,38,30.03,29.92,16,2,16,0.02
2013-8-23,89.5,84.6,81.4,-99.9,-99.9,-99.9,38,38,38,29.98,29.89,15,2,15,0.00
2013-8-24,90.3,84.7,81.6,-99.9,-99.9,-99.9,38,38,38,30.05,29.93,18,2,18,0.00
2013-8-25,87.4,81.8,77.6,-99.9,-99.9,-99.9,38,38,38,30.11,29.99,12,1,15,0.00
2013-8-26,88.6,82.4,77.2,-99.9,-99.9,-99.9,38,38,38,30.08,29.97,16,1,16,0.00
2013-8-27,85.3,78.6,72.5,-99.9,-99.9,-99.9,38,38,38,30.02,29.93,17,0,17,0.90
2013-8-28,82.6,80.3,79.4,-99.9,-99.9,-99.9,38,38,38,29.97,29.92,10,0,0,0.00
2013-8-29,88.8,85.7,82.6,-99.9,-99.9,-99.9,38,38,38,29.98,29.89,11,1,0,0.01
2013-8-30,90.7,84.3,78.1,-99.9,-99.9,-99.9,38,38,38,29.95,29.86,19,3,19,0.01
2013-8-31,91.0,82.7,73.7,-99.9,-99.9,-99.9,38,38,38,29.94,29.86,20,3,20,0.06
2013-9-1,88.8,81.1,75.4,-99.9,-99.9,-99.9,38,38,38,29.96,29.88,16,0,16,0.00
2013-9-2,89.3,79.5,74.4,-99.9,-99.9,-99.9,38,38,38,29.99,29.89,23,1,23,1.16
2013-9-3,88.0,81.0,74.0,-99.9,-99.9,-99.9,38,38,38,29.99,29.89,12,1,12,0.00
2013-9-4,88.4,84.2,81.4,-99.9,-99.9,-99.9,38,38,38,30.03,29.91,10,0,0,0.00
2013-9-5,90.3,84.8,82.0,-99.9,-99.9,-99.9,38,38,38,30.03,29.95,12,1,12,0.24
2013-9-6,90.7,85.1,81.6,-99.9,-99.9,-99.9,38,38,38,29.99,29.89,15,1,15,0.00
2013-9-7,88.2,80.2,75.1,-99.9,-99.9,-99.9,38,38,38,29.94,29.85,16,1,16,0.97
2013-9-8,88.0,80.7,74.0,-99.9,-99.9,-99.9,38,38,38,29.91,29.82,11,0,0,0.00
2013-9-9,88.6,82.2,77.0,-99.9,-99.9,-99.9,38,38,38,29.96,29.85,18,2,18,0.08
2013-9-10,87.2,81.6,79.0,-99.9,-99.9,-99.9,38,38,38,30.01,29.91,25,3,25,0.43
2013-9-11,85.1,80.8,73.9,-99.9,-99.9,-99.9,38,38,38,30.03,29.93,18,1,18,1.05
2013-9-12,83.8,79.2,75.1,-99.9,-99.9,-99.9,38,38,38,29.97,29.85,11,0,0,0.20
2013-9-13,87.6,80.7,73.9,-99.9,-99.9,-99.9,38,38,38,29.86,29.77,11,1,0,0.26
2013-9-14,89.0,83.5,77.6,-99.9,-99.9,-99.9,38,38,38,29.93,29.77,12,1,12,0.00
2013-9-15,87.0,82.1,75.8,-99.9,-99.9,-99.9,38,38,38,30.02,29.88,16,2,16,1.54
2013-9-16,85.7,80.3,76.3,-99.9,-99.9,-99.9,38,38,38,30.01,29.92,21,4,21,1.30
2013-9-17,84.0,79.1,74.2,-99.9,-99.9,-99.9,38,38,38,30.01,29.89,16,3,16,1.50
2013-9-18,86.1,81.2,77.4,-99.9,-99.9,-99.9,38,38,38,29.96,29.88,15,1,15,0.00
2013-9-19,85.5,81.0,75.4,-99.9,-99.9,-99.9,38,38,38,29.97,29.88,18,3,18,0.13
2013-9-20,87.0,82.1,78.8,-99.9,-99.9,-99.9,38,38,38,29.95,29.85,16,2,16,0.00
2013-9-21,87.6,82.2,78.5,-99.9,-99.9,-99.9,38,38,38,29.88,29.74,11,0,0,0.00
2013-9-22,90.3,83.2,77.6,-99.9,-99.9,-99.9,38,38,38,29.82,29.71,17,3,17,0.00
2013-9-23,87.0,80.5,77.4,-99.9,-99.9,-99.9,38,38,38,29.94,29.80,16,0,16,0.93
2013-9-24,89.9,78.6,74.9,-99.9,-99.9,-99.9,38,38,38,29.93,29.82,18,2,18,0.44
2013-9-25,88.2,80.2,74.0,-99.9,-99.9,-99.9,38,38,38,29.84,29.74,19,3,19,0.00
2013-9-26,90.1,81.5,76.3,-99.9,-99.9,-99.9,38,38,38,29.81,29.73,20,3,20,0.13
2013-9-27,85.7,80.0,72.8,-99.9,-99.9,-99.9,38,38,38,29.87,29.77,17,2,17,0.00
2013-9-28,85.7,81.2,74.9,-99.9,-99.9,-99.9,38,38,38,29.92,29.83,17,3,17,0.00
2013-9-29,87.2,82.0,75.6,-99.9,-99.9,-99.9,38,38,38,29.92,29.84,11,0,0,0.00
2013-9-30,87.8,81.5,73.9,-99.9,-99.9,-99.9,38,38,38,29.96,29.86,10,0,0,0.00
2013-10-1,86.3,82.4,79.9,-99.9,-99.9,-99.9,38,38,38,30.00,29.91,15,2,15,0.00
2013-10-2,85.1,82.0,80.3,-99.9,-99.9,-99.9,38,38,38,30.00,29.93,13,3,13,0.00
2013-10-3,88.2,82.4,79.6,-99.9,-99.9,-99.9,38,38,38,30.02,29.91,11,1,0,0.00
2013-10-4,86.7,82.1,79.8,-99.9,-99.9,-99.9,38,38,38,30.02,29.94,12,1,12,0.00
2013-10-5,87.4,81.5,73.7,-99.9,-99.9,-99.9,38,38,38,30.00,29.89,12,1,12,0.02
2013-10-6,88.4,82.6,80.1,-99.9,-99.9,-99.9,38,38,38,29.92,29.83,12,1,12,0.00
2013-10-7,86.7,79.3,75.6,-99.9,-99.9,-99.9,38,38,38,29.85,29.80,16,2,16,0.00
2013-10-8,87.6,81.9,77.4,-99.9,-99.9,-99.9,38,38,38,29.88,29.81,7,0,0,0.01
2013-10-9,82.4,77.0,72.5,-99.9,-99.9,-99.9,38,38,38,29.94,29.84,20,4,20,0.16
2013-10-10,85.9,78.9,70.8,-99.9,-99.9,-99.9,38,38,38,29.97,29.89,17,3,17,0.00
2013-10-11,84.9,80.2,74.2,-99.9,-99.9,-99.9,38,38,38,29.97,29.89,12,1,12,0.00
2013-10-12,84.7,78.9,70.3,-99.9,-99.9,-99.9,38,38,38,29.98,29.90,11,1,0,0.00
2013-10-13,85.5,79.7,72.3,-99.9,-99.9,-99.9,38,38,38,30.00,29.92,16,2,16,0.00
2013-10-14,85.7,79.8,71.5,-99.9,-99.9,-99.9,38,38,38,29.96,29.86,12,1,12,0.00
2013-10-15,84.7,78.9,71.3,-99.9,-99.9,-99.9,38,38,38,29.91,29.83,14,1,14,0.00
2013-10-17,80.1,79.7,79.4,-99.9,-99.9,-99.9,38,38,38,29.89,29.88,9,1,0,0.00
2013-10-18,86.7,80.8,74.4,-99.9,-99.9,-99.9,38,38,38,29.94,29.85,11,1,0,0.00
2013-10-19,88.6,82.8,79.6,-99.9,-99.9,-99.9,38,38,38,29.92,29.83,17,4,17,0.00
2013-10-20,87.0,81.9,76.8,-99.9,-99.9,-99.9,38,38,38,29.91,29.82,11,1,0,0.00
2013-10-21,89.3,82.8,77.4,-99.9,-99.9,-99.9,38,38,38,29.95,29.86,17,3,17,0.00
2013-10-22,88.6,83.1,79.6,-99.9,-99.9,-99.9,38,38,38,29.91,29.78,23,6,23,0.02
2013-10-23,87.0,79.2,75.1,-99.9,-99.9,-99.9,38,38,38,29.91,29.76,14,3,14,0.00
2013-10-24,80.3,77.0,71.3,-99.9,-99.9,-99.9,38,38,38,30.05,29.89,18,4,18,0.00
2013-10-25,81.2,78.1,72.3,-99.9,-99.9,-99.9,38,38,38,30.11,30.02,16,5,16,0.00
2013-10-26,83.0,77.4,69.3,-99.9,-99.9,-99.9,38,38,38,30.11,30.02,12,2,0,0.00
2013-10-27,81.8,73.7,65.2,-99.9,-99.9,-99.9,38,38,38,30.05,29.99,14,2,13,0.00
2013-10-28,83.0,78.4,67.6,-99.9,-99.9,-99.9,38,38,38,30.10,30.00,10,2,0,0.00
2013-10-29,83.4,79.6,75.6,-99.9,-99.9,-99.9,38,38,38,30.14,30.05,15,4,15,0.03
2013-10-30,82.6,79.3,77.4,-99.9,-99.9,-99.9,38,38,38,30.15,30.05,16,5,16,0.00
2013-10-31,84.1,80.0,77.6,-99.9,-99.9,-99.9,38,38,38,30.08,29.95,15,4,15,0.00
2013-11-1,86.5,81.5,78.1,-99.9,-99.9,-99.9,38,38,38,29.96,29.83,18,6,18,0.01
2013-11-2,88.8,78.9,71.1,-99.9,-99.9,-99.9,38,38,38,29.88,29.75,14,2,14,0.00
2013-11-3,79.9,74.0,67.1,-99.9,-99.9,-99.9,38,38,38,29.99,29.84,21,7,21,0.00
2013-11-4,78.5,76.6,75.1,-99.9,-99.9,-99.9,38,38,38,30.03,29.97,21,9,21,0.00
2013-11-5,81.2,78.5,77.0,-99.9,-99.9,-99.9,38,38,38,30.05,29.98,21,9,21,0.00
2013-11-6,83.2,79.1,77.2,-99.9,-99.9,-99.9,38,38,38,30.03,29.95,20,4,20,0.00
2013-11-7,82.8,76.5,70.6,-99.9,-99.9,-99.9,38,38,38,29.97,29.88,14,2,14,0.00
2013-11-8,82.0,75.8,70.4,-99.9,-99.9,-99.9,38,38,38,30.00,29.89,24,6,24,0.38
2013-11-9,78.6,77.0,75.3,-99.9,-99.9,-99.9,38,38,38,30.07,29.98,22,8,22,0.03
2013-11-10,77.9,77.7,77.4,-99.9,-99.9,-99.9,38,38,38,30.05,30.02,14,5,14,0.00
2013-11-12,83.2,78.4,74.2,-99.9,-99.9,-99.9,38,38,38,30.03,29.92,13,1,13,0.00
2013-11-13,75.1,72.6,69.4,-99.9,-99.9,-99.9,38,38,38,30.19,29.95,26,10,26,0.07
2013-11-14,75.4,72.5,69.3,-99.9,-99.9,-99.9,38,38,38,30.21,30.11,22,8,22,0.00
2013-11-15,79.2,76.1,73.3,-99.9,-99.9,-99.9,38,38,38,30.11,30.00,18,7,18,0.00
2013-11-16,81.2,78.0,75.6,-99.9,-99.9,-99.9,38,38,38,30.06,29.97,16,4,16,0.03
2013-11-17,84.7,79.5,77.4,-99.9,-99.9,-99.9,38,38,38,30.03,29.95,16,4,16,0.00
2013-11-18,84.3,78.3,73.7,-99.9,-99.9,-99.9,38,38,38,29.98,29.87,10,1,0,0.00
2013-11-19,82.0,76.6,72.7,-99.9,-99.9,-99.9,38,38,38,29.89,29.81,14,2,14,0.06
2013-11-20,82.0,75.0,68.1,-99.9,-99.9,-99.9,38,38,38,30.02,29.87,13,1,13,0.99
2013-11-21,77.9,75.9,72.7,-99.9,-99.9,-99.9,38,38,38,30.10,30.00,19,6,19,1.85
2013-11-22,80.3,77.6,76.3,-99.9,-99.9,-99.9,38,38,38,30.12,30.03,16,6,16,0.00
2013-11-23,81.4,77.7,75.8,-99.9,-99.9,-99.9,38,38,38,30.04,29.93,12,2,12,0.00
2013-11-24,78.5,73.1,67.6,-99.9,-99.9,-99.9,38,38,38,30.11,29.94,24,7,24,0.31
2013-11-25,74.0,72.6,71.3,-99.9,-99.9,-99.9,38,38,38,30.16,30.02,20,10,21,0.01
2013-11-26,81.4,77.4,73.7,-99.9,-99.9,-99.9,38,38,38,30.02,29.77,28,9,28,0.11
2013-11-27,77.7,70.7,55.7,-99.9,-99.9,-99.9,38,38,38,30.07,29.72,19,6,19,0.39
2013-11-28,72.3,61.6,46.0,-99.9,-99.9,-99.9,38,38,38,30.20,30.06,16,6,16,0.00
2013-11-29,75.4,71.9,58.9,-99.9,-99.9,-99.9,38,38,38,30.23,30.15,18,6,18,0.00
2013-11-30,76.0,71.5,61.0,-99.9,-99.9,-99.9,38,38,38,30.17,30.06,20,5,20,0.10
2013-12-1,78.6,72.0,68.8,-99.9,-99.9,-99.9,38,38,38,30.06,29.90,13,2,13,0.55
2013-12-2,71.3,67.0,62.6,-99.9,-99.9,-99.9,38,38,38,29.89,29.77,14,2,14,0.17
2013-12-3,76.8,69.6,62.1,-99.9,-99.9,-99.9,38,38,38,29.95,29.85,10,0,0,0.01
2013-12-4,80.3,73.7,66.4,-99.9,-99.9,-99.9,38,38,38,30.05,29.94,16,2,16,0.00
2013-12-5,81.6,76.8,73.7,-99.9,-99.9,-99.9,38,38,38,30.12,30.04,19,3,19,0.23
2013-12-6,82.0,77.8,75.3,-99.9,-99.9,-99.9,38,38,38,30.14,30.05,22,7,22,0.00
2013-12-7,78.3,74.5,70.1,-99.9,-99.9,-99.9,38,38,38,30.18,30.10,14,1,14,0.38
2013-12-8,80.7,77.6,75.4,-99.9,-99.9,-99.9,38,38,38,30.17,30.08,18,5,18,0.07
2013-12-9,82.8,78.4,76.0,-99.9,-99.9,-99.9,38,38,38,30.15,30.06,20,6,20,0.00
2013-12-10,83.6,78.3,74.2,-99.9,-99.9,-99.9,38,38,38,30.11,30.03,16,4,16,0.00
2013-12-11,82.4,75.9,69.6,-99.9,-99.9,-99.9,38,38,38,30.16,30.08,10,0,0,0.00
2013-12-12,76.3,72.2,69.9,-99.9,-99.9,-99.9,38,38,38,30.17,30.09,25,6,25,0.00
2013-12-13,75.3,72.7,70.6,-99.9,-99.9,-99.9,38,38,38,30.17,30.06,21,6,21,0.00
2013-12-14,81.4,77.2,73.5,-99.9,-99.9,-99.9,38,38,38,30.06,29.94,23,8,23,0.02
2013-12-15,80.1,75.3,70.8,-99.9,-99.9,-99.9,38,38,38,30.02,29.88,14,3,14,0.00
2013-12-16,72.5,66.5,59.6,-99.9,-99.9,-99.9,38,38,38,30.11,30.00,14,3,17,0.00
2013-12-17,75.6,66.3,57.3,-99.9,-99.9,-99.9,38,38,38,30.14,30.06,12,2,12,0.00
2013-12-18,73.0,65.1,57.8,-99.9,-99.9,-99.9,38,38,38,30.20,30.09,18,3,18,0.01
2013-12-19,75.6,71.1,60.9,-99.9,-99.9,-99.9,38,38,38,30.20,30.12,13,3,13,0.00
2013-12-20,79.6,76.0,73.3,-99.9,-99.9,-99.9,38,38,38,30.16,30.06,15,4,15,0.00
2013-12-21,83.2,78.5,75.4,-99.9,-99.9,-99.9,38,38,38,30.11,30.02,18,6,18,0.00
2013-12-22,82.6,78.8,76.8,-99.9,-99.9,-99.9,38,38,38,30.11,30.03,22,11,22,0.00
2013-12-23,82.4,78.4,74.4,-99.9,-99.9,-99.9,38,38,38,30.13,30.06,21,8,21,0.00
2013-12-24,81.2,71.9,67.8,-99.9,-99.9,-99.9,38,38,38,30.12,30.06,21,5,21,0.00
2013-12-25,74.0,72.5,71.5,-99.9,-99.9,-99.9,38,38,38,30.14,30.06,20,7,20,0.00
2013-12-26,77.7,75.2,72.7,-99.9,-99.9,-99.9,38,38,38,30.12,30.02,13,3,13,0.00
2013-12-27,79.2,76.2,73.0,-99.9,-99.9,-99.9,38,38,38,30.15,30.05,12,4,12,0.08
2013-12-28,78.1,76.2,74.7,-99.9,-99.9,-99.9,38,38,38,30.14,29.98,18,7,20,0.00
2013-12-29,80.7,77.3,74.0,-99.9,-99.9,-99.9,38,38,38,29.98,29.87,24,7,24,0.25
2013-12-30,74.7,71.8,68.9,-99.9,-99.9,-99.9,38,38,38,30.10,29.92,12,2,13,0.00
2013-12-31,76.7,72.8,67.4,-99.9,-99.9,-99.9,38,38,38,30.19,30.06,17,5,17,0.00
2014-1-1,79.4,75.9,72.3,-99.9,-99.9,-99.9,38,38,38,30.16,30.00,15,7,15,0.05
2014-1-2,84.0,77.5,72.0,-99.9,-99.9,-99.9,38,38,38,29.99,29.80,19,5,19,0.00